This is the latest recevied weather packets stored in our database for station/object N6GPM. If no packets are shown the sender has not sent any weather packets the latest 10 day(s).
| Time | Temp. | Humidity | Pressure | Rain* | Wind** | Luminosity | Snow |
|---|---|---|---|---|---|---|---|
| 1787487551 | 23.89° C | 38% | 1017.6 hPa | 0 mm | - | 0 W/m² | - |
| 1787487246 | 23.89° C | 38% | 1017.7 hPa | 0 mm | - | 0 W/m² | - |
| 1787486942 | 23.89° C | 38% | 1017.5 hPa | 0 mm | - | 0 W/m² | - |
| 1787486637 | 23.89° C | 35% | 1017.6 hPa | 0 mm | - | 0 W/m² | - |
| 1787486336 | 24.44° C | 35% | 1017.5 hPa | 0 mm | - | 0 W/m² | - |
| 1787486031 | 23.89° C | 36% | 1017.7 hPa | 0 mm | - | 0 W/m² | - |
| 1787485727 | 23.89° C | 39% | 1017.7 hPa | 0 mm | - | 0 W/m² | - |
| 1787485422 | 23.89° C | 41% | 1017.6 hPa | 0 mm | - | 0 W/m² | - |
| 1787485117 | 24.44° C | 42% | 1017.3 hPa | 0 mm | - | 0 W/m² | - |
| 1787484814 | 25° C | 37% | 1017.6 hPa | 0 mm | - | 0 W/m² | - |
| 1787484510 | 25.56° C | 34% | 1017.7 hPa | 0 mm | - | 0 W/m² | - |
| 1787484205 | 25.56° C | 33% | 1017.6 hPa | 0 mm | - | 0 W/m² | - |
| 1787483901 | 25.56° C | 33% | 1017.7 hPa | 0 mm | - | 0 W/m² | - |
| 1787483598 | 25.56° C | 33% | 1017.7 hPa | 0 mm | - | 0 W/m² | - |
| 1787483294 | 25° C | 34% | 1017.6 hPa | 0 mm | - | 0 W/m² | - |
| 1787482990 | 25° C | 34% | 1017.8 hPa | 0 mm | - | 0 W/m² | - |
| 1787482685 | 25° C | 34% | 1017.5 hPa | 0 mm | - | 0 W/m² | - |
| 1787482381 | 25.56° C | 34% | 1017.6 hPa | 0 mm | - | 0 W/m² | - |
| 1787482077 | 25° C | 35% | 1017.7 hPa | 0 mm | - | 0 W/m² | - |
| 1787481776 | 25° C | 36% | 1017.5 hPa | 0 mm | - | 0 W/m² | - |
| 1787481472 | 25° C | 37% | 1017.7 hPa | 0 mm | - | 0 W/m² | - |
| 1787481170 | 25° C | 38% | 1017.7 hPa | 0 mm | - | 0 W/m² | - |
| 1787480866 | 24.44° C | 39% | 1017.9 hPa | 0 mm | - | 0 W/m² | - |
| 1787480563 | 24.44° C | 39% | 1017.8 hPa | 0 mm | - | 0 W/m² | - |
| 1787480258 | 25° C | 40% | 1017.7 hPa | 0 mm | - | 0 W/m² | - |
* Rain latest hour (hover to see other rain measurements)
** Current wind speed in m/s (hover to see current wind gust speed)